STARLINK-3660, 51977

Orbit data source: Space-Track

STARLINK-3660, 51977 is a payload satellite owned by SpaceX/Seattle (US) in LEO that was launched on Wed, 09 Mar 2022 UTC via an FALCON 9 launch vehicle from the Air Force Eastern Test Range (AFETR). Payload-class satellites include a variety of spacecraft equipped with specific instruments for various scientific and technological missions. These include communications satellites like Starlink; space stations such as the ISS; scientific satellites like the Hubble; Earth observation satellites from companies like Planet Labs, Umbra, and HawkEye 360; GPS; miniature CubeSats for education and research; and military/defense satellites.

Loading next visibility...
Identifier
51977, 2022-025X
Orbit
LEO
Country
Flag of USUS
Related business
Manufacturer
SpaceX/Seattle
Mission
Operational Commercial Communications
Bus & Motor
STARLINK, Unknown motor
Mass
297 kg wet, ~275 kg dry
Launch date (UTC)
2022-03-09 (4 years ago)
Launch vehicle
FALCON 9
Launch site
Air Force Eastern Test Range (AFETR)
Object type
Payload
Rocket body
Debris
Shape & HBR
Box + 1 Pan, 10.1 m
Radar Cross Section
13.562 m², Large (>1 m²)

Expand to show TLE details & history
Last TLE update: 1 day ago

TLE from 1 day ago
0 STARLINK-3660
1 51977U 22025X   25346.44619875 -.00001393  00000-0 -69453-4 0  9993
2 51977  53.2177  50.7841 0001240  89.6985 270.4149 15.08836298208167
Epoch: 2025-12-12T10:42Z
TLE epoch observation values (Epoch: 2025-12-12T10:42:31.571Z)
Latitude
-0.00007°
Longitude
168.7648°
Altitude
540.646 km
Speed
7.593 km/s
True Right ascension
03h 23m 08s
True Declination
0° 00' 00"
Sunlit
Object was in full shadow at epoch
Visualization orbit readout
Latitude
Unknown
Longitude
Unknown
Altitude
Unknown
Speed
Unknown
Apparent Right ascension
Unknown
Apparent Declination
Unknown
Sunlit
N/A
Visualization observer readout
Local Sidereal Time
09:14:38
Azimuth
Unknown
Elevation
Unknown
Doppler factor
Unknown
Orbital elements
Apogee altitude
540.857 km
Perigee altitude
539.142 km
Semi-major axis
6,918.137 km
Eccentricity
0.00012
Inclination
53.2177°
RAAN
50.7841°
Arg. of periapsis
89.6985°
True anomaly
270.40069°
Mean anomaly
270.4149°
Eccentric anomaly
270.4078°
Mean motion
3.77189 °/min
Orbital period
95.44 mins
BSTAR
-0.000069453
Loading maneuver chart data...
Computing Atmospheric mass density...
Loading historical data...
Loading historical data...
Loading historical data...
Loading historical data...
Loading historical data...
Loading historical data...
Loading historical data...

Documentation

Showing up to 5 results
|